Home   Weather   Saint Thomas   Past weeks
Flag for US Virgin Islands

Past Weather in Saint Thomas, US Virgin Islands — Yesterday and Last 2 Weeks

Now
78 °F

Clear.


Feels Like: 80 °F
Forecast: 83 / 77 °F
Wind: 16 mph from East

Location: Cyril E. King International Airport

Current Time: Apr 21, 2019 at 12:53:48 am

Latest Report: Apr 20, 2019 at 11:53 pm


Visibility: 10 mi

Pressure: 30.07 "Hg (27.56 "Hg at 760m altitude)

Humidity: 71%

Dew Point: 68 °F

Location of Saint ThomasLocation

Past Weather in Saint Thomas — Graph

°F

Saint Thomas Temperature Yesterday

Maximum temperature yesterday: 85 °F (at 1:53 pm)
Minimum temperature yesterday: 77 °F (at 1:53 am)
Average temperature yesterday: 81 °F

High & Low Weather Summary for the Past Weeks

 TemperatureHumidityPressure
High88 °F (Apr 17, 11:53 am)85% (Apr 12, 3:53 am)30.14 "Hg (Apr 12, 3:53 am)
Low74 °F (Apr 9, 12:53 am)43% (Apr 13, 10:53 am)29.93 "Hg (Apr 11, 2:53 am)
Average80 °F67%30.02 "Hg
* Reported Apr 5 10:53 pm — Apr 20 10:53 pm, Saint Thomas. Weather by CustomWeather, © 2019

Note: Actual official high and low records may vary slightly from our data, if they occured in-between our weather recording intervals... More about our weather records

Advertising

Saint Thomas Weather History for the Previous 24 Hours

Scroll right to see more
 ConditionsComfort  
Time TempWeatherWind HumidityBarometerVisibility
10:53 pm
Sat, Apr 20
79 °FClear.15 mph69%30.07 "Hg10 mi
9:53 pm79 °FPassing clouds.16 mph69%30.06 "Hg10 mi
8:53 pm79 °FClear.15 mph69%30.05 "Hg10 mi
7:53 pm79 °FClear.16 mph72%30.05 "Hg10 mi
6:53 pm80 °FPassing clouds.15 mph64%30.04 "Hg10 mi
5:53 pm81 °FSunny.17 mph62%30.03 "Hg10 mi
4:53 pm84 °FPassing clouds.16 mph55%30.02 "Hg10 mi
3:53 pm84 °FScattered clouds.15 mph59%30.03 "Hg10 mi
2:53 pm84 °FSunny.18 mph61%30.03 "Hg10 mi
1:53 pm85 °FPassing clouds.15 mph51%30.05 "Hg10 mi
12:53 pm84 °FSunny.18 mph59%30.07 "Hg10 mi
11:53 am84 °FPassing clouds.18 mph59%30.09 "Hg10 mi
10:53 am84 °FSunny.17 mph53%30.11 "Hg10 mi
9:53 am84 °FPassing clouds.16 mph51%30.12 "Hg10 mi
8:53 am81 °FPassing clouds.17 mph60%30.11 "Hg10 mi
7:53 am81 °FPassing clouds.14 mph60%30.09 "Hg10 mi
6:53 am78 °FSunny.10 mph64%30.07 "Hg10 mi
5:53 am77 °FClear.13 mph71%30.05 "Hg10 mi
4:53 am77 °FClear.13 mph66%30.03 "Hg10 mi
3:53 am77 °FClear.12 mph69%30.02 "Hg10 mi
2:53 am77 °FLight rain. Passing clouds.15 mph71%30.03 "Hg10 mi
1:53 am77 °FPassing clouds.10 mph71%30.03 "Hg10 mi
12:53 am78 °FClear.14 mph69%30.04 "Hg10 mi
Weather by CustomWeather, © 2019

See weather overview